This is the latest recevied weather packets stored in our database for station/object 2E0RGX-13. If no packets are shown the sender has not sent any weather packets the latest 10 day(s).
| Time | Temp. | Humidity | Pressure | Rain* | Wind** | Luminosity | Snow |
|---|---|---|---|---|---|---|---|
| 1777644590 | 23.89° C | 41% | 1015.7 hPa | 0 mm | - | 4 W/m² | - |
| 1777644286 | 25° C | 39% | 1015.6 hPa | 0 mm | - | 4 W/m² | - |
| 1777643982 | 24.44° C | 39% | 1015.6 hPa | 0 mm | - | 4 W/m² | - |
| 1777643678 | 23.89° C | 38% | 1015.4 hPa | 0 mm | - | 4 W/m² | - |
| 1777643374 | 23.33° C | 38% | 1015.7 hPa | 0 mm | - | 4 W/m² | - |
| 1777643070 | 24.44° C | 38% | 1015.5 hPa | 0 mm | - | 4 W/m² | - |
| 1777642766 | 23.89° C | 38% | 1015.6 hPa | 0 mm | - | 4 W/m² | - |
| 1777642462 | 23.89° C | 38% | 1015.9 hPa | 0 mm | - | 4 W/m² | - |
| 1777642157 | 24.44° C | 37% | 1015.8 hPa | 0 mm | - | 4 W/m² | - |
| 1777641853 | 23.89° C | 38% | 1015.7 hPa | 0 mm | - | 4 W/m² | - |
| 1777641549 | 24.44° C | 37% | 1015.8 hPa | 0 mm | - | 4 W/m² | - |
| 1777641245 | 24.44° C | 37% | 1015.8 hPa | 0 mm | - | 4 W/m² | - |
| 1777640941 | 23.89° C | 37% | 1015.9 hPa | 0 mm | - | 4 W/m² | - |
| 1777640637 | 23.33° C | 38% | 1016.1 hPa | 0 mm | - | 4 W/m² | - |
| 1777640333 | 23.89° C | 36% | 1015.8 hPa | 0 mm | - | 4 W/m² | - |
| 1777640029 | 23.33° C | 37% | 1016.1 hPa | 0 mm | - | 4 W/m² | - |
| 1777639726 | 23.89° C | 36% | 1016 hPa | 0 mm | - | 4 W/m² | - |
| 1777639422 | 23.33° C | 36% | 1016 hPa | 0 mm | - | 4 W/m² | - |
| 1777639117 | 23.33° C | 35% | 1015.9 hPa | 0 mm | - | 4 W/m² | - |
| 1777638814 | 23.33° C | 35% | 1016.1 hPa | 0 mm | - | 4 W/m² | - |
| 1777638509 | 23.33° C | 36% | 1016 hPa | 0 mm | - | 4 W/m² | - |
| 1777638205 | 23.33° C | 35% | 1016.1 hPa | 0 mm | - | 4 W/m² | - |
| 1777637901 | 23.33° C | 35% | 1016.1 hPa | 0 mm | - | 4 W/m² | - |
| 1777637597 | 22.78° C | 36% | 1016.2 hPa | 0 mm | - | 4 W/m² | - |
| 1777637293 | 22.78° C | 36% | 1016.4 hPa | 0 mm | - | 4 W/m² | - |
* Rain latest hour (hover to see other rain measurements)
** Current wind speed in m/s (hover to see current wind gust speed)